Flag for U.S.A. Weather past 2 weeks in Lawrence, Kansas, U.S.A.

36 °F

Light rain. Overcast.

Feels Like: 28 °F
Forecast: 33 / 60 °F
Wind: 10 mph from North

Location: Lawrence Municipal Airport

Current Time: Nov 26, 2015 at 5:53:34 PM

Latest Report: Nov 26, 2015 at 4:52 PM

Visibility: 8 mi

Pressure: 30.21 "Hg

Humidity: 92%

Dew point: 34 °F

Location of LawrenceLocation

Historic Weather in Lawrence — Graph


Lawrence temperature yesterday

Maximum temperature yesterday: 61 °F (at 2:52 PM)
Minimum temperature yesterday: 52 °F (at 3:52 AM)
Average temperature yesterday: 58 °F

Past Weeks' High & Low Weather Summary

High69 °F (Nov 14, 1:52 PM)100% (Nov 16, 7:03 PM)30.43 "Hg (Nov 16, 7:03 PM)
Low22 °F (Nov 21, 7:52 PM)21% (Nov 12, 3:52 PM)29.34 "Hg (Nov 18, 4:52 AM)
Average47 °F66%30.01 "Hg
* Reported Nov 11 4:52 PM — Nov 26 4:52 PM, Lawrence, Weather by CustomWeather, © 2015

Note: Actual official high and low records may vary slightly from our data, if they occured in-between our weather recording intervals... More about our weather records


Lawrence weather history for previous 24 hours

Time TempWeatherWind HumidityBarometerVisibility
4:52 PM
Thu, Nov 26
36 °FLight rain. Overcast.10 mph92%30.21 "Hg8 mi
3:52 PM37 °FLight rain. Fog.16 mph93%30.19 "Hg5 mi
2:52 PM37 °FRain. Fog.12 mph96%30.16 "Hg5 mi
2:01 PM38 °FRain. Fog.17 mph97%30.15 "Hg2 mi
1:58 PM38 °FRain. Fog.15 mph97%30.15 "Hg2 mi
12:52 PM41 °FLight rain. Fog.16 mph96%30.13 "Hg5 mi
11:52 AM42 °FLight rain. Fog.22 mph96%30.12 "Hg3 mi
11:03 AM45 °FLight rain. Fog.18 mph97%30.12 "Hg3 mi
10:52 AM47 °FLight rain. Fog.18 mph97%30.12 "Hg2 mi
9:52 AM63 °FOvercast.14 mph84%30.07 "Hg10 mi
8:52 AM63 °FOvercast.16 mph81%30.07 "Hg10 mi
7:52 AM63 °FOvercast.14 mph81%30.07 "Hg10 mi
6:52 AM62 °FMostly cloudy.12 mph80%30.06 "Hg10 mi
6:01 AM61 °FOvercast.14 mph81%30.06 "Hg10 mi
5:52 AM61 °FMostly cloudy.14 mph81%30.04 "Hg10 mi
4:52 AM61 °FOvercast.16 mph78%30.03 "Hg10 mi
4:02 AM60 °FMostly cloudy.13 mph78%30.04 "Hg10 mi
3:52 AM60 °FMostly cloudy.14 mph78%30.03 "Hg10 mi
2:52 AM59 °FMostly cloudy.15 mph78%30.03 "Hg10 mi
2:00 AM59 °FPartly cloudy.15 mph78%30.03 "Hg10 mi
12:59 AM61 °FMostly cloudy.14 mph75%30.04 "Hg10 mi
12:02 AM61 °FMostly cloudy.14 mph75%30.04 "Hg10 mi
11:52 PM
Wed, Nov 25
61 °FOvercast.15 mph75%30.03 "Hg10 mi
10:52 PM61 °FMostly cloudy.17 mph75%30.02 "Hg10 mi
9:52 PM61 °FMostly cloudy.13 mph78%30.01 "Hg10 mi
8:52 PM61 °FMostly cloudy.14 mph78%29.99 "Hg10 mi
7:52 PM61 °FMostly cloudy.14 mph78%29.98 "Hg10 mi
6:52 PM61 °FOvercast.15 mph75%29.96 "Hg10 mi
5:52 PM61 °FMostly cloudy.13 mph75%29.95 "Hg10 mi
Weather by CustomWeather, © 2015

See weather overviewHow to use our weather pages